Date,TemperatureHighF,TemperatureAvgF,TemperatureLowF,DewpointHighF,DewpointAvgF,DewpointLowF,HumidityHigh,HumidityAvg,HumidityLow,PressureMaxIn,PressureMinIn,WindSpeedMaxMPH,WindSpeedAvgMPH,GustSpeedMaxMPH,PrecipitationSumIn
2013-1-1,32,32,32,18,18,18,55,55,55,29.83,29.83,0,0,1,0.00
2013-1-2,32,26,17,18,14,10,73,61,55,29.93,29.83,2,0,2,0.00
2013-1-3,23,23,23,12,12,12,62,62,62,29.91,29.91,1,1,1,0.00
2013-1-4,23,23,23,12,12,12,62,62,62,29.91,29.91,1,1,1,0.00
2013-1-5,23,23,23,12,12,12,62,62,62,29.91,29.91,1,1,1,0.00
2013-1-6,23,23,23,12,12,12,62,62,62,29.91,29.91,1,1,1,0.00
2013-1-7,23,23,23,12,12,12,62,62,62,29.91,29.91,1,1,1,0.00
2013-1-8,23,23,23,12,12,12,62,62,62,29.91,29.91,1,1,1,0.00
2013-1-9,23,23,23,12,12,12,62,62,62,29.91,29.91,1,1,1,0.00
2013-1-10,23,23,23,12,12,12,62,62,62,29.91,29.91,1,1,1,0.00
2013-1-15,37,29,27,20,17,9,70,60,31,30.14,29.85,6,1,6,0.00
2013-1-16,38,32,29,22,18,13,68,55,43,29.85,29.62,2,0,2,0.00
2013-1-17,35,33,25,26,21,10,71,62,50,29.99,29.74,10,1,10,0.00
2013-1-18,41,28,21,13,6,-3,58,40,25,30.21,29.85,17,3,17,0.00
2013-1-19,57,44,34,23,16,10,43,34,25,29.85,29.46,3,0,3,0.00
2013-1-20,48,30,21,28,10,-1,53,44,32,29.89,29.43,14,5,14,0.04
2013-1-21,22,21,19,4,3,-4,48,46,34,29.86,29.70,11,7,11,0.00
2013-1-22,21,16,0,4,0,-10,48,45,41,29.98,29.70,11,6,11,0.00
2013-1-23,8,8,8,-8,-8,-8,46,46,46,29.97,29.97,4,4,8,0.00
2013-3-1,29,27,25,23,20,16,87,75,63,29.72,29.65,0,0,0,1.83
2013-3-2,27,25,22,21,18,15,80,73,65,29.70,29.66,0,0,2,0.00
2013-3-3,27,24,22,18,15,10,77,68,55,29.72,29.66,2,0,2,0.00
2013-3-4,37,26,22,17,13,10,75,58,34,29.81,29.72,3,0,3,0.01
2013-3-5,48,32,21,20,15,5,78,53,23,29.80,29.39,6,1,6,0.00
2013-3-6,39,37,33,24,22,19,66,56,52,29.68,29.39,4,0,4,0.00
2013-3-7,39,39,39,24,24,24,55,55,55,29.68,29.68,0,0,1,0.00
2013-3-8,39,39,39,24,24,24,55,55,55,29.68,29.68,0,0,1,0.00
2013-3-9,39,39,39,24,24,24,55,55,55,29.68,29.68,0,0,1,0.00
2013-3-10,39,39,39,24,24,24,55,55,55,29.68,29.68,0,0,1,0.00
2013-3-11,39,39,39,24,24,24,55,55,55,29.68,29.68,0,0,1,0.00
2013-3-12,39,39,39,24,24,24,55,55,55,29.68,29.68,0,0,1,0.00
2013-3-13,39,39,39,24,24,24,55,55,55,29.68,29.68,0,0,1,0.00
2013-3-14,39,39,39,24,24,24,55,55,55,29.68,29.68,0,0,1,0.00
2013-3-15,46,37,32,34,28,19,99,70,53,29.75,29.55,6,1,6,0.81
2013-3-16,35,32,29,35,31,24,99,94,80,29.72,29.38,2,0,2,0.24
2013-3-17,35,30,26,27,20,13,89,66,47,29.92,29.71,2,0,2,0.02
2013-3-18,35,33,26,34,26,12,94,79,54,29.87,29.48,2,1,2,0.01
2013-3-19,35,35,35,33,33,33,90,90,90,29.48,29.48,2,2,2,0.01
2013-3-20,35,35,35,33,33,33,90,90,90,29.48,29.48,2,2,2,0.01
2013-3-21,35,35,35,33,33,33,90,90,90,29.48,29.48,2,2,2,0.01
2013-3-22,35,29,25,33,22,17,94,74,58,29.68,29.48,12,5,12,0.07
2013-3-23,30,30,30,20,20,20,68,68,68,29.68,29.68,7,7,7,0.07
2013-3-24,30,30,30,20,20,20,68,68,68,29.68,29.68,7,7,7,0.07
2013-3-25,30,30,30,20,20,20,68,68,68,29.68,29.68,7,7,7,0.07
2013-3-26,30,30,30,20,20,20,68,68,68,29.68,29.68,7,7,7,0.07
2013-3-27,30,30,30,20,20,20,68,68,68,29.68,29.68,7,7,7,0.07
2013-3-28,30,30,30,20,20,20,68,68,68,29.68,29.68,7,7,7,0.07
2013-3-29,30,30,30,20,20,20,68,68,68,29.68,29.68,7,7,7,0.07
2013-3-30,30,30,30,20,20,20,68,68,68,29.68,29.68,7,7,7,0.07
2013-3-31,30,30,30,20,20,20,68,68,68,29.68,29.68,7,7,7,0.07
2013-4-1,30,30,30,20,20,20,68,68,68,29.68,29.68,7,7,7,0.07
2013-4-2,30,30,30,20,20,20,68,68,68,29.68,29.68,7,7,7,0.07
2013-4-3,30,30,30,20,20,20,68,68,68,29.68,29.68,7,7,7,0.07
2013-4-4,30,30,30,20,20,20,68,68,68,29.68,29.68,7,7,7,0.07
2013-4-5,30,30,30,20,20,20,68,68,68,29.68,29.68,7,7,7,0.07
2013-4-6,30,30,30,20,20,20,68,68,68,29.68,29.68,7,7,7,0.07
2013-4-7,30,30,30,20,20,20,68,68,68,29.68,29.68,7,7,7,0.07
2013-4-8,30,30,30,20,20,20,68,68,68,29.68,29.68,7,7,7,0.07
2013-4-9,30,30,30,20,20,20,68,68,68,29.68,29.68,7,7,7,0.07
2013-4-10,30,30,30,20,20,20,68,68,68,29.68,29.68,7,7,7,0.07
2013-4-11,56,46,30,53,43,20,99,92,68,29.68,29.30,7,1,7,1.50
2013-4-12,56,46,42,56,46,42,99,98,97,29.36,29.17,3,1,3,0.24
2013-4-13,44,41,38,43,35,29,98,78,61,29.73,29.33,14,2,14,0.04
2013-4-14,60,45,32,35,32,26,86,62,35,29.84,29.67,2,0,2,0.00
2013-4-15,69,62,50,44,41,34,59,47,41,29.75,29.65,1,0,1,0.00
2013-4-16,69,69,69,43,43,43,41,41,41,29.73,29.73,0,0,0,0.00
2013-4-17,69,69,69,43,43,43,41,41,41,29.73,29.73,0,0,0,0.00
2013-4-18,69,69,69,43,43,43,41,41,41,29.73,29.73,0,0,0,0.00
2013-4-19,69,69,69,43,43,43,41,41,41,29.73,29.73,0,0,0,0.00
2013-4-20,69,69,69,43,43,43,41,41,41,29.73,29.73,0,0,0,0.00
2013-4-21,69,69,69,43,43,43,41,41,41,29.73,29.73,0,0,0,0.00
2013-4-22,69,69,69,43,43,43,41,41,41,29.73,29.73,0,0,0,0.00
2013-4-23,80,68,46,44,35,23,58,34,16,29.88,29.60,4,0,4,0.41
2013-4-24,62,47,36,56,44,36,99,90,45,29.86,29.44,14,3,14,0.66
2013-4-25,57,42,31,45,33,21,97,75,33,30.06,29.85,2,0,2,0.12
2013-4-26,54,46,32,39,29,16,97,58,27,30.18,30.05,1,0,1,0.00
2013-4-27,54,54,54,26,26,26,36,36,36,30.16,30.16,0,0,0,0.00
2013-4-28,54,54,54,26,26,26,36,36,36,30.16,30.16,0,0,0,0.00
2013-4-29,54,54,54,26,26,26,36,36,36,30.16,30.16,0,0,0,0.00
2013-4-30,54,54,54,26,26,26,36,36,36,30.16,30.16,0,0,0,0.00
2013-5-1,54,54,54,26,26,26,36,36,36,30.16,30.16,0,0,0,0.00
2013-5-2,54,54,54,26,26,26,36,36,36,30.16,30.16,0,0,0,0.00
2013-5-3,54,54,54,26,26,26,36,36,36,30.16,30.16,0,0,0,0.00
2013-5-4,54,54,54,26,26,26,36,36,36,30.16,30.16,0,0,0,0.00
2013-5-5,54,54,54,26,26,26,36,36,36,30.16,30.16,0,0,0,0.00
2013-5-6,54,54,54,26,26,26,36,36,36,30.16,30.16,0,0,0,0.00
2013-5-7,54,54,54,26,26,26,36,36,36,30.16,30.16,0,0,0,0.00
2013-5-8,78,60,54,58,37,26,86,46,36,30.16,29.65,4,0,4,0.24
2013-5-9,84,69,56,59,40,15,98,52,12,29.70,29.64,1,0,1,0.00
2013-5-10,71,71,71,27,27,27,23,23,23,29.67,29.67,0,0,0,0.00
2013-5-11,71,71,71,27,27,27,23,23,23,29.67,29.67,0,0,0,0.00
2013-5-12,71,71,71,27,27,27,23,23,23,29.67,29.67,0,0,0,0.00
2013-5-13,71,71,71,27,27,27,23,23,23,29.67,29.67,0,0,0,0.00
2014-1-1,80,61,43,42,32,22,62,37,14,30.08,29.81,0,0,0,0.00
2014-1-2,58,56,54,57,50,35,99,83,47,29.80,29.60,4,1,4,0.13